CW1492 Weather Reports


Display with metric or nautical units.
time (UTC)temp
F
wind
direction
speed
MPH
gust
MPH
rain 1hr
in
rain 24hr
in
rain mn
in
humidity
%
barometer
mb
20260506204905 59 142 5.0 14.0 0.01 0.26 0.26 85 1005.7
20260506204845 59 199 5.0 10.0 0.03 0.26 0.26 95 1004.4
20260506203416 59 103 6.0 18.0 0.02 0.26 0.26 85 1005.8
20260506203343 59 117 3.0 19.0 0.04 0.25 0.25 95 1004.6
20260506201954 59 73 7.0 13.0 0.04 0.26 0.26 85 1005.9
20260506201905 59 157 7.0 14.0 0.06 0.25 0.25 95 1004.7
20260506200333 59 128 4.0 15.0 0.07 0.25 0.25 85 1006.0
20260506200324 59 30 4.0 12.0 0.07 0.24 0.24 95 1004.6
20260506194858 59 104 4.0 17.0 0.09 0.25 0.25 85 1006.1
20260506194845 59 274 5.0 11.0 0.07 0.23 0.23 95 1004.9
20260506193350 60 88 4.0 11.0 0.06 0.21 0.21 95 1004.9
20260506193348 60 100 5.0 17.0 0.09 0.24 0.24 85 1006.3
20260506191918 60 105 6.0 17.0 0.09 0.22 0.22 85 1006.3
20260506191820 60 191 3.0 13.0 0.06 0.19 0.19 95 1005.1
20260506190426 60 135 7.0 15.0 0.07 0.18 0.18 84 1006.5
20260506190407 60 140 3.0 11.0 0.06 0.17 0.17 95 1005.2
20260506184908 60 120 6.0 16.0 0.07 0.16 0.16 84 1006.6
20260506184820 59 153 5.0 12.0 0.07 0.16 0.16 95 1005.2
20260506183449 60 200 3.0 10.0 0.08 0.15 0.15 84 1006.6
20260506183321 59 128 7.0 11.0 0.08 0.15 0.15 95 1005.2
20260506181946 60 99 4.0 12.0 0.08 0.13 0.13 82 1006.8
20260506181837 59 157 7.0 11.0 0.08 0.13 0.13 94 1005.5
20260506180335 60 138 4.0 9.0 0.08 0.11 0.11 94 1005.9
20260506180327 60 101 5.0 12.0 0.07 0.11 0.11 81 1007.2
20260506174858 60 117 2.0 4.0 0.08 0.09 0.09 94 1006.2
20260506174843 60 120 2.0 9.0 0.07 0.09 0.09 79 1007.7
20260506173435 60 108 1.0 6.0 0.06 0.07 0.07 78 1008.0
20260506173400 60 142 2.0 4.0 0.07 0.07 0.07 93 1006.5
20260506171904 60 132 2.0 3.0 0.05 0.05 0.05 92 1006.7
20260506171831 60 152 1.0 8.0 0.05 0.05 0.05 75 1008.2
20260506170342 60 182 2.0 7.0 0.04 0.04 0.04 74 1008.4
20260506170321 61 143 1.0 4.0 0.03 0.03 0.03 91 1006.9
20260506164848 60 156 0.0 8.0 0.02 0.02 0.02 72 1008.3
20260506164838 61 78 0.0 2.0 0.01 0.01 0.01 91 1006.8
20260506163414 61 155 1.0 7.0 0.00 0.00 0.00 70 1008.3
20260506163356 61 106 1.0 5.0 0.00 0.00 0.00 89 1006.8
20260506163314 61 106 1.0 5.0 0.00 0.00 0.00 89 1006.8
20260506161834 61 142 2.0 7.0 0.00 0.00 0.00 68 1008.5
20260506161832 61 71 2.0 8.0 0.00 0.00 0.00 88 1006.9
20260506160401 62 167 2.0 9.0 0.00 0.00 0.00 67 1008.5
20260506160353 62 193 3.0 8.0 0.00 0.00 0.00 86 1007.0
20260506154848 62 208 2.0 7.0 0.00 0.00 0.00 86 1007.3
20260506154844 62 164 2.0 9.0 0.00 0.00 0.00 66 1008.9
20260506153352 62 160 4.0 9.0 0.00 0.00 0.00 86 1007.6
20260506153337 62 224 3.0 9.0 0.00 0.00 0.00 66 1009.2
20260506151825 62 166 4.0 12.0 0.00 0.00 0.00 64 1009.3
20260506150409 62 148 2.0 7.0 0.00 0.00 0.00 84 1007.8
20260506150355 61 114 5.0 11.0 0.00 0.00 0.00 65 1009.6
20260506144849 61 275 2.0 5.0 0.00 0.00 0.00 84 1008.0
20260506144836 61 132 2.0 8.0 0.00 0.00 0.00 65 1009.7
20260506143342 61 160 2.0 9.0 0.00 0.00 0.00 65 1009.6
20260506143329 61 175 3.0 8.0 0.00 0.00 0.00 84 1007.9
20260506141842 61 191 2.0 6.0 0.00 0.00 0.00 65 1009.3
20260506141828 61 157 2.0 7.0 0.00 0.00 0.00 84 1007.5
20260506140437 61 199 1.0 7.0 0.00 0.00 0.00 84 1007.9
20260506140344 61 202 2.0 8.0 0.00 0.00 0.00 65 1009.6
20260506134853 60 96 1.0 5.0 0.00 0.00 0.00 65 1009.2
20260506134829 60 187 5.0 10.0 0.00 0.00 0.00 85 1007.6
20260506133334 60 249 2.0 7.0 0.00 0.00 0.00 67 1009.3
20260506133332 60 144 2.0 7.0 0.00 0.00 0.00 86 1007.6
20260506131902 59 141 3.0 11.0 0.00 0.00 0.00 68 1009.4
20260506131813 59 138 2.0 8.0 0.00 0.00 0.00 86 1007.7
20260506130346 58 164 3.0 9.0 0.00 0.00 0.00 68 1009.7
20260506130332 59 276 1.0 5.0 0.00 0.00 0.00 87 1008.1
20260506124847 58 101 2.0 9.0 0.00 0.00 0.00 68 1009.9
20260506124837 59 98 1.0 7.0 0.00 0.00 0.00 87 1008.3
20260506123404 58 145 2.0 9.0 0.00 0.00 0.00 88 1008.6
20260506123328 58 137 1.0 5.0 0.00 0.00 0.00 68 1010.0
20260506121844 58 143 4.0 11.0 0.00 0.00 0.00 89 1008.2
20260506121827 58 203 4.0 9.0 0.00 0.00 0.00 68 1009.8
20260506120337 58 177 2.0 10.0 0.00 0.00 0.00 68 1009.5
20260506120322 58 153 9.0 11.0 0.00 0.00 0.00 89 1007.8
20260506114903 58 179 4.0 8.0 0.00 0.00 0.00 68 1009.6
20260506114824 57 153 8.0 10.0 0.00 0.00 0.00 89 1008.1
20260506113344 57 151 4.0 9.0 0.00 0.00 0.00 89 1008.3
20260506113327 57 118 4.0 9.0 0.00 0.00 0.00 68 1009.6
20260506111842 57 157 6.0 9.0 0.00 0.00 0.00 89 1008.5
20260506111835 57 118 4.0 10.0 0.00 0.00 0.00 68 1009.8
20260506110338 57 108 2.0 5.0 0.00 0.00 0.00 68 1009.7
20260506110320 57 153 8.0 11.0 0.00 0.00 0.00 89 1008.4
20260506104902 57 150 9.0 12.0 0.00 0.00 0.00 89 1008.2
20260506104843 57 145 3.0 8.0 0.00 0.00 0.00 68 1009.6
20260506103347 57 178 5.0 13.0 0.00 0.00 0.00 68 1009.7
20260506103324 57 155 8.0 10.0 0.00 0.00 0.00 89 1008.3
20260506101853 57 153 7.0 11.0 0.00 0.00 0.00 88 1008.2
20260506101832 57 149 3.0 9.0 0.00 0.00 0.00 68 1009.6
20260506100333 57 157 6.0 11.0 0.00 0.00 0.00 87 1008.1
20260506100328 57 139 1.0 7.0 0.00 0.00 0.00 68 1009.5
20260506094921 57 111 2.0 8.0 0.00 0.00 0.00 67 1009.5
20260506094815 57 165 5.0 11.0 0.00 0.00 0.00 88 1008.0
20260506093334 55 112 1.0 8.0 0.00 0.00 0.00 88 1008.1
20260506093331 57 110 2.0 9.0 0.00 0.00 0.00 67 1009.7
20260506091854 55 355 0.0 2.0 0.00 0.00 0.00 88 1008.1
20260506091829 57 134 3.0 7.0 0.00 0.00 0.00 66 1009.5
20260506090335 57 119 2.0 8.0 0.00 0.00 0.00 65 1009.6
20260506084925 57 135 3.0 8.0 0.00 0.00 0.00 65 1009.6
20260506084814 55 42 0.0 1.0 0.00 0.00 0.00 88 1008.3
20260506083353 57 85 2.0 6.0 0.00 0.00 0.00 64 1009.8
20260506083331 55 5 0.0 1.0 0.00 0.00 0.00 87 1008.4
20260506081829 56 5 0.0 1.0 0.00 0.00 0.00 86 1008.3
20260506080415 57 79 2.0 6.0 0.00 0.00 0.00 63 1009.8
20260506080347 57 9 0.0 0.0 0.00 0.00 0.00 84 1008.5
20260506080332 57 79 2.0 6.0 0.00 0.00 0.00 63 1009.8
20260506073355 58 91 2.0 3.0 0.00 0.00 0.00 62 1009.9
20260506073339 59 244 0.0 2.0 0.00 0.00 0.00 80 1008.6
20260506071920 58 145 1.0 6.0 0.00 0.00 0.00 61 1010.0
20260506071845 59 211 0.0 2.0 0.00 0.00 0.00 79 1008.5
20260506070338 59 110 1.0 4.0 0.00 0.00 0.00 61 1010.1
20260506070316 59 251 0.0 2.0 0.00 0.00 0.00 78 1008.6
20260506061901 60 260 1.0 4.0 0.00 0.00 0.00 76 1008.4
20260506061854 60 88 2.0 6.0 0.00 0.00 0.00 59 1009.9
20260506060424 60 143 3.0 6.0 0.00 0.00 0.00 58 1010.0
20260506060321 61 284 1.0 2.0 0.00 0.00 0.00 75 1008.5
20260506050332 61 108 4.0 9.0 0.00 0.00 0.00 55 1010.1
20260506050322 62 155 0.0 4.0 0.00 0.00 0.00 72 1008.7
20260506044905 62 134 3.0 6.0 0.00 0.00 0.00 54 1010.2
20260506044820 62 188 0.0 3.0 0.00 0.00 0.00 71 1008.9
20260506043349 62 169 2.0 8.0 0.00 0.00 0.00 54 1010.2
20260506043321 63 265 2.0 4.0 0.00 0.00 0.00 71 1008.7
20260506041833 63 16 2.0 8.0 0.00 0.00 0.00 54 1010.1
20260506041830 63 172 2.0 5.0 0.00 0.00 0.00 71 1008.6
20260506040419 63 89 3.0 9.0 0.00 0.00 0.00 54 1010.2
20260506040313 64 173 1.0 4.0 0.00 0.00 0.00 70 1008.7
20260506034856 64 176 2.0 7.0 0.00 0.00 0.00 69 1008.7
20260506034831 63 99 5.0 9.0 0.00 0.00 0.00 53 1010.3
20260506033351 64 140 3.0 7.0 0.00 0.00 0.00 53 1010.1
20260506033335 65 121 2.0 4.0 0.00 0.00 0.00 69 1008.5
20260506031841 65 253 0.0 5.0 0.00 0.00 0.00 69 1008.5
20260506031826 65 264 3.0 5.0 0.00 0.00 0.00 53 1010.1
20260506030341 65 112 1.0 4.0 0.00 0.00 0.00 52 1010.1
20260506030316 65 298 0.0 3.0 0.00 0.00 0.00 69 1008.5
20260506024842 65 137 2.0 7.0 0.00 0.00 0.00 52 1009.9
20260506023349 65 100 2.0 6.0 0.00 0.00 0.00 54 1009.9
20260506023344 66 148 1.0 4.0 0.00 0.00 0.00 70 1008.4
20260506021851 66 127 3.0 8.0 0.00 0.00 0.00 54 1010.1
20260506021843 65 275 1.0 4.0 0.00 0.00 0.00 70 1008.6
20260506020354 66 178 2.0 6.0 0.00 0.00 0.00 52 1010.4
20260506020340 64 57 0.0 3.0 0.00 0.00 0.00 76 1008.6
20260506014924 67 156 3.0 9.0 0.00 0.00 0.00 52 1009.7
20260506014904 64 9 1.0 7.0 0.00 0.00 0.00 77 1008.2
20260506014821 64 9 1.0 7.0 0.00 0.00 0.00 77 1008.2
20260506013400 65 355 1.0 6.0 0.00 0.00 0.00 75 1008.3
20260506013327 67 108 4.0 6.0 0.00 0.00 0.00 52 1009.6
20260506011833 67 120 2.0 4.0 0.00 0.00 0.00 50 1009.6
20260506011821 66 151 0.0 2.0 0.00 0.00 0.00 72 1008.0
20260506010430 66 146 0.0 2.0 0.00 0.00 0.00 72 1007.9
20260506010335 67 87 2.0 6.0 0.00 0.00 0.00 50 1009.5
20260506004912 66 154 0.0 6.0 0.00 0.00 0.00 69 1007.7
20260506004902 67 86 2.0 3.0 0.00 0.00 0.00 50 1009.3
20260506003330 69 260 0.0 1.0 0.00 0.00 0.00 67 1007.8
20260506003326 68 106 3.0 4.0 0.00 0.00 0.00 48 1009.2
20260506001853 69 263 1.0 2.0 0.00 0.00 0.00 63 1007.7
20260506001833 69 127 0.0 2.0 0.00 0.00 0.00 47 1009.3
20260506000355 69 114 2.0 4.0 0.00 0.00 0.00 48 1009.0
20260506000312 70 290 0.0 1.0 0.00 0.00 0.00 65 1007.5
20260505234851 70 167 0.0 6.0 0.00 0.00 0.00 46 1009.0
20260505234832 70 278 1.0 3.0 0.00 0.00 0.00 62 1007.5
20260505233401 71 298 3.0 4.0 0.00 0.00 0.00 61 1006.8
20260505233340 70 264 0.0 4.0 0.00 0.00 0.00 44 1008.6
20260505233319 71 298 3.0 4.0 0.00 0.00 0.00 61 1006.8
20260505231902 71 39 2.0 12.0 0.00 0.00 0.00 43 1008.2
20260505231821 72 334 2.0 4.0 0.00 0.00 0.00 58 1006.6
20260505230345 73 25 2.0 10.0 0.00 0.00 0.00 37 1008.0
20260505230337 74 304 2.0 5.0 0.00 0.00 0.00 54 1006.3
20260505224916 74 330 5.0 18.0 0.00 0.00 0.00 36 1007.0
20260505224839 74 71 3.0 12.0 0.00 0.00 0.00 54 1005.4
20260505223344 75 229 5.0 11.0 0.00 0.00 0.00 36 1006.3
20260505223315 74 244 2.0 10.0 0.00 0.00 0.00 53 1005.0
20260505221935 77 241 2.0 16.0 0.00 0.00 0.00 34 1006.1
20260505221816 74 232 4.0 9.0 0.00 0.00 0.00 53 1004.8
20260505220402 75 161 4.0 14.0 0.00 0.00 0.00 52 1004.5
20260505220351 79 142 6.0 14.0 0.00 0.00 0.00 30 1005.7
20260505214926 80 218 8.0 17.0 0.00 0.00 0.00 19 1005.8
20260505214820 77 117 6.0 13.0 0.00 0.00 0.00 50 1004.2
20260505213426 82 311 4.0 14.0 0.00 0.00 0.00 21 1005.5
20260505213402 78 67 3.0 14.0 0.00 0.00 0.00 46 1004.1
20260505211913 83 191 5.0 20.0 0.00 0.00 0.00 19 1005.3
20260505211841 80 180 3.0 13.0 0.00 0.00 0.00 37 1003.9
20260505210423 82 229 6.0 18.0 0.00 0.00 0.00 20 1005.0
20260505210313 79 338 3.0 16.0 0.00 0.00 0.00 37 1003.7